EW1448 Weather Reports


Display with metric or nautical units.
time (UTC)temp
F
wind
direction
speed
MPH
gust
MPH
rain 1hr
in
rain 24hr
in
rain mn
in
humidity
%
barometer
mb
20260508023048 74 212 0.0 2.0 0.00 0.00 0.00 12 1012.7
20260507234541 88 115 0.0 4.0 0.00 0.00 0.00 10 1012.4
20260507233046 88 231 1.0 7.0 0.00 0.00 0.00 10 1012.5
20260507231521 88 48 3.0 8.0 0.00 0.00 0.00 10 1012.6
20260507221534 86 30 3.0 7.0 0.00 0.00 0.00 10 1013.4
20260507210027 84 68 3.0 10.0 0.00 0.00 0.00 9 1014.8
20260507200045 85 44 3.0 6.0 0.00 0.00 0.00 10 1015.7
20260507194544 84 144 4.0 9.0 0.00 0.00 0.00 11 1016.0
20260507193035 83 190 2.0 6.0 0.00 0.00 0.00 12 1016.2
20260507191551 81 59 4.0 10.0 0.00 0.00 0.00 13 1016.5
20260507190036 83 313 0.0 4.0 0.00 0.00 0.00 13 1016.8
20260507181608 78 194 3.0 10.0 0.00 0.00 0.00 14 1017.4
20260507180026 78 15 4.0 7.0 0.00 0.00 0.00 16 1017.6
20260507174521 76 59 2.0 8.0 0.00 0.00 0.00 16 1017.8
20260507173029 76 51 3.0 8.0 0.00 0.00 0.00 16 1018.0
20260507170046 74 207 1.0 6.0 0.00 0.00 0.00 16 1018.3
20260507164530 74 330 1.0 5.0 0.00 0.00 0.00 17 1018.4
20260507163031 72 24 1.0 6.0 0.00 0.00 0.00 19 1018.6
20260507161535 72 328 2.0 8.0 0.00 0.00 0.00 18 1018.7
20260507160049 70 319 4.0 8.0 0.00 0.00 0.00 18 1018.9
20260507154609 70 307 4.0 7.0 0.00 0.00 0.00 19 1019.0
20260507153109 69 288 2.0 6.0 0.00 0.00 0.00 20 1019.2
20260507151536 68 319 4.0 6.0 0.00 0.00 0.00 20 1019.3
20260507150026 67 351 3.0 8.0 0.00 0.00 0.00 23 1019.4
20260507141545 65 72 1.0 3.0 0.00 0.00 0.00 29 1019.7
20260507140045 64 14 1.0 3.0 0.00 0.00 0.00 31 1019.7
20260507134552 63 2 0.0 1.0 0.00 0.00 0.00 30 1019.6
20260507133038 60 285 0.0 0.0 0.00 0.00 0.00 28 1019.5
20260507131545 57 287 0.0 3.0 0.00 0.00 0.00 30 1019.5
20260507130030 54 280 0.0 3.0 0.00 0.00 0.00 34 1019.4